EA3CD Weather Reports


time (UTC)temp
F
wind
direction
speed
knots
gust
knots
rain 1hr
in
rain 24hr
in
rain mn
in
humidity
%
barometer
mb
20260507105703 69 109 8.7 8.7 0.00 0.00 0.00 87 1010.5
20260507105104 70 96 5.2 8.7 0.00 0.00 0.00 87 1010.5
20260507104504 69 90 8.7 8.7 0.00 0.00 0.00 88 1010.5
20260507103904 69 112 8.7 8.7 0.00 0.00 0.00 88 1010.5
20260507103604 69 125 8.7 8.7 0.00 0.00 0.00 88 1010.5
20260507103303 69 135 8.7 8.7 0.00 0.00 0.00 86 1010.5
20260507103004 70 131 7.0 7.8 0.00 0.00 0.00 87 1010.5
20260507102704 69 135 7.0 7.8 0.00 0.00 0.00 86 1010.5
20260507102403 69 141 7.8 7.8 0.00 0.00 0.00 86 1010.5
20260507102104 69 152 7.0 7.0 0.00 0.00 0.00 87 1010.5
20260507101804 68 158 5.2 5.2 0.00 0.00 0.00 87 1010.5
20260507101504 69 145 5.2 5.2 0.00 0.00 0.00 88 1010.5
20260507101204 69 131 5.2 5.2 0.00 0.00 0.00 88 1010.5
20260507100604 68 105 3.5 7.8 0.00 0.00 0.00 89 1010.5
20260507100303 69 100 3.5 7.8 0.00 0.00 0.00 87 1010.5
20260507100005 69 94 5.2 9.6 0.00 0.00 0.00 87 1010.5
20260507095404 69 79 5.2 9.6 0.00 0.00 0.00 86 1010.5
20260507094504 69 121 7.8 9.6 0.00 0.00 0.00 87 1010.5
20260507094203 69 123 7.0 8.7 0.00 0.00 0.00 86 1010.5
20260507093604 68 118 8.7 8.7 0.00 0.00 0.00 87 1010.5
20260507093004 68 95 7.8 9.6 0.00 0.00 0.00 86 1010.5
20260507092703 68 120 3.5 11.3 0.00 0.00 0.00 86 1010.5
20260507092403 68 106 9.6 11.3 0.00 0.00 0.00 86 1010.5
20260507092104 68 106 3.5 11.3 0.00 0.00 0.00 87 1010.5
20260507091804 68 90 7.0 11.3 0.00 0.00 0.00 87 1010.5
20260507091504 67 90 7.0 13.9 0.00 0.00 0.00 89 1010.5
20260507091203 68 90 4.3 13.9 0.00 0.00 0.00 89 1010.5
20260507090604 68 87 13.9 13.9 0.00 0.00 0.00 88 1010.5
20260507090304 69 100 9.6 10.4 0.00 0.00 0.00 89 1010.5
20260507090005 68 111 10.4 10.4 0.00 0.00 0.00 89 1010.5
20260507085404 68 92 8.7 9.6 0.00 0.00 0.00 89 1010.5
20260507085105 68 81 9.6 9.6 0.00 0.00 0.00 89 1010.5
20260507084804 69 78 3.5 9.6 0.00 0.00 0.00 89 1009.5
20260507084504 68 66 9.6 9.6 0.00 0.00 0.00 89 1009.5
20260507084204 68 60 9.6 9.6 0.00 0.00 0.00 89 1009.5
20260507083904 69 45 5.2 5.2 0.00 0.00 0.00 89 1009.5
20260507083604 69 51 5.2 6.1 0.00 0.00 0.00 89 1009.5
20260507083304 68 83 5.2 6.1 0.00 0.00 0.00 88 1010.5
20260507083004 68 116 5.2 6.1 0.00 0.00 0.00 89 1010.5
20260507082704 68 140 6.1 6.1 0.00 0.00 0.00 90 1010.5
20260507082404 68 135 5.2 5.2 0.00 0.00 0.00 90 1010.5
20260507082104 68 135 4.3 5.2 0.00 0.00 0.00 90 1010.5
20260507081804 68 135 4.3 5.2 0.00 0.00 0.00 89 1009.5
20260507081504 68 135 4.3 5.2 0.00 0.00 0.00 89 1009.5
20260507081204 68 130 5.2 5.2 0.00 0.00 0.00 88 1009.5
20260507080904 68 111 5.2 5.2 0.00 0.00 0.00 89 1009.5
20260507080603 69 95 5.2 5.2 0.00 0.00 0.00 90 1009.5
20260507080303 68 83 4.3 5.2 0.00 0.00 0.00 90 1010.5
20260507080004 68 85 4.3 5.2 0.00 0.00 0.00 90 1010.5
20260507075703 68 86 5.2 5.2 0.00 0.00 0.00 90 1010.5
20260507075404 68 85 5.2 5.2 0.00 0.00 0.00 90 1010.5
20260507075104 68 82 2.6 5.2 0.00 0.00 0.00 90 1010.5
20260507074804 68 71 2.6 5.2 0.00 0.00 0.00 90 1010.5
20260507073904 67 52 5.2 7.0 0.00 0.00 0.00 92 1010.5
20260507073604 66 85 7.0 7.0 0.00 0.00 0.00 91 1010.5
20260507073303 67 96 1.7 3.5 0.00 0.00 0.00 91 1010.5
20260507073003 67 82 1.7 3.5 0.00 0.00 0.00 91 1010.5
20260507072704 67 75 3.5 7.0 0.00 0.00 0.00 91 1010.5
20260507072403 67 70 1.7 7.0 0.00 0.00 0.00 91 1010.5
20260507072103 67 72 2.6 7.0 0.00 0.00 0.00 91 1010.5
20260507071804 67 75 7.0 7.0 0.00 0.00 0.00 91 1010.5
20260507071203 67 55 4.3 4.3 0.00 0.00 0.00 92 1010.5
20260507070604 67 21 2.6 3.5 0.00 0.00 0.00 93 1010.5
20260507070304 66 37 3.5 5.2 0.00 0.00 0.00 93 1010.5
20260507070008 66 46 2.6 5.2 0.00 0.00 0.00 94 1010.5
20260507065703 66 56 3.5 5.2 0.00 0.00 0.00 94 1010.5
20260507065404 65 50 5.2 5.2 0.00 0.00 0.00 95 1010.5
20260507065104 65 48 2.6 3.5 0.00 0.00 0.00 96 1010.5
20260507064803 65 45 2.6 3.5 0.00 0.00 0.00 96 1010.5
20260507064503 64 33 2.6 3.5 0.00 0.00 0.00 97 1010.5
20260507064204 64 26 3.5 3.5 0.00 0.00 0.00 97 1010.5
20260507063904 63 10 3.5 3.5 0.00 0.00 0.00 97 1010.5
20260507063604 63 12 1.7 2.6 0.00 0.00 0.00 98 1010.5
20260507063303 62 16 1.7 3.5 0.00 0.00 0.00 98 1009.5
20260507063003 62 13 1.7 3.5 0.00 0.00 0.00 98 1009.5
20260507062704 61 22 1.7 3.5 0.00 0.00 0.00 98 1009.5
20260507062404 60 27 2.6 3.5 0.00 0.00 0.00 98 1009.5
20260507062103 59 33 0.9 2.6 0.00 0.00 0.00 98 1009.5
20260507061504 59 32 2.6 2.6 0.00 0.00 0.00 98 1009.5
20260507061204 59 24 2.6 2.6 0.00 0.00 0.00 98 1009.5
20260507060904 59 37 2.6 2.6 0.00 0.00 0.00 98 1009.5
20260507060303 59 24 0.9 3.5 0.00 0.00 0.00 98 1009.5
20260507060004 58 30 2.6 3.5 0.00 0.00 0.00 98 1009.5
20260507055703 57 38 1.7 3.5 0.00 0.00 0.00 98 1009.5
20260507055103 56 49 3.5 3.5 0.00 0.00 0.00 98 1009.5
20260507054803 56 49 2.6 3.5 0.00 0.00 0.00 98 1009.5
20260507054204 56 38 1.7 2.6 0.00 0.00 0.00 98 1009.5
20260507053903 56 32 2.6 3.5 0.00 0.00 0.00 98 1009.5
20260507053303 56 23 1.7 3.5 0.00 0.00 0.00 98 1009.5
20260507052704 56 26 2.6 3.5 0.00 0.00 0.00 98 1009.5
20260507052404 56 33 2.6 3.5 0.00 0.00 0.00 98 1009.5
20260507052104 56 34 0.9 3.5 0.00 0.00 0.00 98 1009.5
20260507051804 56 38 3.5 3.5 0.00 0.00 0.00 98 1009.5
20260507051504 56 38 2.6 3.5 0.00 0.00 0.00 98 1009.5
20260507050904 56 71 0.9 1.7 0.00 0.00 0.00 98 1009.5
20260507050604 55 72 0.9 1.7 0.00 0.00 0.00 98 1009.5
20260507050304 55 90 0.0 1.7 0.00 0.00 0.00 98 1008.5
20260507050003 54 90 1.7 1.7 0.00 0.00 0.00 98 1008.5
20260507045704 54 337 0.0 1.7 0.00 0.00 0.00 98 1008.5
20260507045403 54 341 0.0 1.7 0.00 0.00 0.00 98 1008.5
20260507045104 54 343 0.0 1.7 0.00 0.00 0.00 98 1008.5
20260507044803 54 346 1.7 1.7 0.00 0.00 0.00 98 1008.5
20260507044503 54 350 1.7 1.7 0.00 0.00 0.00 98 1008.5
20260507043904 54 350 0.9 1.7 0.00 0.00 0.00 98 1008.5
20260507043603 54 346 1.7 1.7 0.00 0.00 0.00 98 1008.5
20260507043304 54 337 0.0 0.9 0.00 0.00 0.00 98 1009.5
20260507042404 54 340 0.0 1.7 0.00 0.00 0.00 98 1009.5
20260507042103 54 340 1.7 1.7 0.00 0.00 0.00 98 1009.5
20260507041804 54 350 1.7 1.7 0.00 0.00 0.00 98 1008.5
20260507041503 54 1 0.0 0.9 0.00 0.00 0.00 98 1008.5
20260507041204 55 1 0.9 1.7 0.00 0.00 0.00 98 1008.5
20260507040903 55 1 0.9 1.7 0.00 0.00 0.00 98 1008.5
20260507040604 55 3 0.9 1.7 0.00 0.00 0.00 98 1008.5
20260507040303 55 11 1.7 1.7 0.00 0.00 0.00 98 1009.5
20260507040004 55 13 0.9 1.7 0.00 0.00 0.00 98 1009.5
20260507035704 55 7 0.9 1.7 0.00 0.00 0.00 98 1009.5
20260507035403 55 357 1.7 1.7 0.00 0.00 0.00 98 1009.5
20260507035104 55 346 0.0 2.6 0.00 0.00 0.00 98 1009.5
20260507034804 55 349 1.7 2.6 0.00 0.00 0.00 98 1009.5
20260507034203 55 348 2.6 2.6 0.00 0.00 0.00 98 1009.5
20260507033903 54 352 1.7 2.6 0.00 0.00 0.00 98 1009.5
20260507033304 54 348 1.7 2.6 0.00 0.00 0.00 98 1008.5
20260507033003 54 342 1.7 1.7 0.00 0.00 0.00 98 1008.5
20260507032703 54 338 0.9 1.7 0.00 0.00 0.00 98 1008.5
20260507032404 54 335 1.7 1.7 0.00 0.00 0.00 98 1008.5
20260507031504 54 346 1.7 1.7 0.00 0.00 0.00 98 1009.5
20260507031204 54 348 0.9 1.7 0.00 0.00 0.00 98 1009.5
20260507030903 54 354 1.7 1.7 0.00 0.00 0.00 98 1009.5
20260507030603 54 352 0.9 1.7 0.00 0.00 0.00 98 1009.5
20260507030304 54 341 0.9 1.7 0.00 0.00 0.00 98 1009.5
20260507025704 54 334 1.7 1.7 0.00 0.00 0.00 98 1009.5
20260507025403 54 337 1.7 1.7 0.00 0.00 0.00 98 1009.5
20260507025104 55 343 1.7 1.7 0.00 0.00 0.00 98 1009.5
20260507024803 55 342 0.9 1.7 0.00 0.00 0.00 98 1009.5
20260507024203 55 326 1.7 1.7 0.00 0.00 0.00 98 1009.5
20260507023603 55 317 1.7 1.7 0.00 0.00 0.00 98 1009.5
20260507023004 55 331 1.7 2.6 0.00 0.00 0.00 98 1009.5
20260507022704 55 327 1.7 2.6 0.00 0.00 0.00 98 1009.5
20260507022104 55 314 2.6 2.6 0.00 0.00 0.00 98 1009.5
20260507021803 55 314 2.6 2.6 0.00 0.00 0.00 98 1009.5
20260507021504 55 337 0.0 1.7 0.00 0.00 0.00 98 1009.5
20260507021204 55 345 0.0 1.7 0.00 0.00 0.00 98 1009.5
20260507020903 55 353 0.0 1.7 0.00 0.00 0.00 98 1009.5
20260507020304 55 36 0.9 1.7 0.00 0.00 0.00 98 1009.5
20260507020004 55 46 0.0 1.7 0.00 0.00 0.00 98 1009.5
20260507015704 55 35 0.0 1.7 0.00 0.00 0.00 98 1009.5
20260507015404 55 350 0.0 0.9 0.00 0.00 0.00 98 1009.5
20260507015104 56 336 0.0 1.7 0.00 0.00 0.00 98 1009.5
20260507014803 56 336 0.9 1.7 0.00 0.00 0.00 98 1009.5
20260507014504 56 338 0.9 1.7 0.00 0.00 0.00 98 1009.5
20260507014204 56 7 1.7 2.6 0.00 0.00 0.00 98 1009.5
20260507013903 56 1 0.0 2.6 0.00 0.00 0.00 98 1009.5
20260507013604 56 359 0.9 2.6 0.00 0.00 0.00 98 1009.5
20260507012703 56 359 1.7 2.6 0.00 0.00 0.00 98 1009.5
20260507012404 56 359 1.7 2.6 0.00 0.00 0.00 98 1009.5
20260507012104 56 11 1.7 2.6 0.00 0.00 0.00 98 1009.5
20260507011804 56 14 2.6 2.6 0.00 0.00 0.00 98 1009.5
20260507010904 56 15 1.7 5.2 0.00 0.00 0.00 98 1009.5
20260507010604 56 14 2.6 5.2 0.00 0.00 0.00 98 1009.5
20260507010303 56 12 5.2 5.2 0.00 0.00 0.00 98 1009.5
20260507010004 56 8 3.5 3.5 0.00 0.00 0.00 98 1009.5
20260507005704 56 24 1.7 3.5 0.00 0.00 0.00 98 1009.5
20260507005103 56 30 3.5 3.5 0.00 0.00 0.00 98 1009.5
20260507004803 56 25 3.5 4.3 0.00 0.00 0.00 98 1009.5
20260507004504 56 16 1.7 4.3 0.00 0.00 0.00 98 1009.5
20260507004204 56 16 1.7 4.3 0.00 0.00 0.00 98 1009.5
20260507003303 55 339 0.0 1.7 0.00 0.00 0.00 98 1009.5
20260507003004 56 338 0.9 1.7 0.00 0.00 0.00 98 1009.5
20260507002703 56 347 0.9 1.7 0.00 0.00 0.00 98 1009.5
20260507002403 56 9 1.7 1.7 0.00 0.00 0.00 98 1009.5
20260507002103 56 22 0.9 1.7 0.00 0.00 0.00 98 1009.5
20260507001803 56 353 1.7 1.7 0.00 0.00 0.00 98 1009.5
20260507001503 56 314 0.0 1.7 0.00 0.00 0.00 98 1009.5
20260507001203 56 319 0.0 1.7 0.00 0.00 0.00 98 1009.5
20260507000603 56 349 1.7 1.7 0.00 0.00 0.00 98 1009.5
20260507000306 56 24 0.9 0.9 0.00 0.00 0.00 98 1009.5
20260507000004 56 45 0.0 0.9 0.00 0.00 0.00 98 1009.5
20260506235703 56 46 0.9 0.9 0.00 0.00 0.00 98 1009.5
20260506234503 56 314 0.0 1.7 0.00 0.00 0.00 98 1009.5
20260506234204 56 314 0.0 1.7 0.00 0.00 0.00 98 1009.5
20260506233903 56 327 0.0 1.7 0.00 0.00 0.00 98 1009.5
20260506233603 56 348 0.0 1.7 0.00 0.00 0.00 98 1009.5
20260506233303 56 10 0.0 1.7 0.00 0.00 0.00 98 1009.5
20260506233004 56 33 1.7 2.6 0.00 0.00 0.00 98 1009.5
20260506232704 56 40 0.9 2.6 0.00 0.00 0.00 98 1009.5
20260506232403 56 24 0.9 2.6 0.00 0.00 0.00 98 1009.5
20260506232104 57 337 2.6 2.6 0.00 0.00 0.00 98 1009.5
20260506231503 57 312 1.7 1.7 0.00 0.00 0.00 98 1009.5
20260506231204 57 315 1.7 1.7 0.00 0.00 0.00 98 1009.5
20260506230903 56 321 1.7 2.6 0.00 0.00 0.00 98 1009.5
20260506230604 56 332 1.7 2.6 0.00 0.00 0.00 98 1009.5
20260506230303 56 334 1.7 2.6 0.00 0.00 0.00 98 1009.5
20260506230003 56 333 1.7 1.7 0.00 0.00 0.00 98 1009.5
20260506225703 56 319 1.7 1.7 0.00 0.00 0.00 98 1009.5
20260506225403 56 320 0.9 1.7 0.00 0.00 0.00 98 1009.5
20260506225104 56 327 1.7 1.7 0.00 0.00 0.00 98 1009.5
20260506224804 56 333 1.7 1.7 0.00 0.00 0.00 98 1009.5
20260506224503 56 337 1.7 1.7 0.00 0.00 0.00 98 1009.5
20260506224203 57 341 1.7 1.7 0.00 0.00 0.00 98 1009.5
20260506223903 57 347 1.7 1.7 0.00 0.00 0.00 98 1009.5
20260506223603 57 355 1.7 1.7 0.00 0.00 0.00 98 1009.5
20260506222704 57 319 0.9 2.6 0.00 0.00 0.00 98 1009.5
20260506222404 57 322 1.7 2.6 0.00 0.00 0.00 98 1009.5
20260506222103 57 325 2.6 2.6 0.00 0.00 0.00 98 1009.5
20260506221803 57 331 2.6 2.6 0.00 0.00 0.00 98 1009.5
20260506221504 57 335 2.6 2.6 0.00 0.00 0.00 98 1009.5
20260506221203 57 335 1.7 1.7 0.00 0.00 0.00 98 1009.5
20260506220904 57 335 1.7 1.7 0.00 0.00 0.00 98 1009.5
20260506220304 57 335 1.7 1.7 0.00 0.00 0.00 98 1009.5
20260506220004 57 333 1.7 1.7 0.00 0.00 0.00 98 1009.5
20260506215703 57 333 1.7 1.7 0.00 0.00 0.00 98 1009.5
20260506214504 58 329 0.9 1.7 0.00 0.00 0.00 98 1009.5
20260506214203 58 323 0.9 1.7 0.00 0.00 0.00 98 1009.5
20260506213904 58 325 1.7 2.6 0.00 0.00 0.00 98 1009.5
20260506213603 58 329 1.7 2.6 0.00 0.00 0.00 98 1009.5
20260506213304 58 336 1.7 2.6 0.00 0.00 0.00 98 1009.5
20260506213004 58 339 1.7 2.6 0.00 0.00 0.00 98 1009.5
20260506212704 58 327 2.6 2.6 0.00 0.00 0.00 98 1009.5
20260506212403 58 328 0.0 1.7 0.00 0.00 0.00 98 1009.5
20260506211503 58 351 1.7 2.6 0.00 0.00 0.00 98 1009.5
20260506210904 58 353 1.7 2.6 0.00 0.00 0.00 98 1009.5
20260506210603 59 351 1.7 2.6 0.00 0.00 0.00 98 1009.5
20260506205404 59 331 0.9 1.7 0.00 0.00 0.00 96 1009.5
20260506205103 59 337 0.9 1.7 0.00 0.00 0.00 96 1009.5
20260506204803 59 352 0.0 2.6 0.00 0.00 0.00 96 1009.5
20260506204504 59 5 0.9 2.6 0.00 0.00 0.00 95 1009.5
20260506203904 59 22 2.6 2.6 0.00 0.00 0.00 93 1009.5
20260506203603 59 314 0.0 0.9 0.00 0.00 0.00 92 1009.5
20260506203304 60 314 0.0 0.9 0.00 0.00 0.00 92 1008.5
20260506203003 60 314 0.0 2.6 0.00 0.00 0.00 92 1008.5
20260506202403 60 314 0.9 2.6 0.00 0.00 0.00 92 1008.5
20260506202104 60 320 1.7 1.7 0.00 0.00 0.00 89 1008.5
20260506201803 60 332 0.9 2.6 0.00 0.00 0.00 88 1008.5
20260506201503 60 341 1.7 2.6 0.00 0.00 0.00 87 1008.5
20260506201203 61 350 0.9 2.6 0.00 0.00 0.00 87 1008.5
20260506200904 61 1 1.7 1.7 0.00 0.00 0.00 83 1008.5
20260506200604 61 1 0.9 0.9 0.00 0.00 0.00 81 1008.5
20260506200304 61 1 0.0 0.9 0.00 0.00 0.00 81 1008.5
20260506195403 62 335 0.9 1.7 0.00 0.00 0.00 78 1008.5
20260506194803 63 337 1.7 1.7 0.00 0.00 0.00 75 1008.5
20260506194204 63 0 0.0 0.0 0.00 0.00 0.00 74 1008.5
20260506193903 63 0 0.0 0.0 0.00 0.00 0.00 75 1008.5
20260506193603 63 0 0.0 0.0 0.00 0.00 0.00 74 1008.5
20260506193303 63 135 0.0 1.7 0.00 0.00 0.00 74 1008.5
20260506193003 63 135 0.0 1.7 0.00 0.00 0.00 74 1008.5
20260506192403 63 135 1.7 2.6 0.00 0.00 0.00 75 1008.5
20260506192104 63 135 1.7 2.6 0.00 0.00 0.00 75 1008.5
20260506191803 63 135 2.6 2.6 0.00 0.00 0.00 72 1007.5
20260506191204 64 135 0.9 2.6 0.00 0.00 0.00 69 1007.5
20260506190903 64 135 1.7 2.6 0.00 0.00 0.00 69 1007.5
20260506190603 64 138 2.6 2.6 0.00 0.00 0.00 68 1007.5
20260506190004 65 154 1.7 1.7 0.00 0.00 0.00 65 1007.5
20260506185703 65 162 0.9 1.7 0.00 0.00 0.00 63 1007.5
20260506185404 65 155 1.7 1.7 0.00 0.00 0.00 61 1007.5
20260506185103 66 154 0.9 1.7 0.00 0.00 0.00 61 1007.5
20260506184803 66 140 0.0 1.7 0.00 0.00 0.00 60 1007.5
20260506184203 67 148 0.9 1.7 0.00 0.00 0.00 58 1007.5
20260506183903 68 149 1.7 1.7 0.00 0.00 0.00 57 1007.5
20260506183604 68 149 0.0 1.7 0.00 0.00 0.00 57 1007.5
20260506183304 68 157 0.9 2.6 0.00 0.00 0.00 57 1007.5
20260506183003 68 148 1.7 3.5 0.00 0.00 0.00 57 1007.5
20260506182703 68 133 0.9 3.5 0.00 0.00 0.00 58 1007.5
20260506182404 68 132 2.6 5.2 0.00 0.00 0.00 58 1007.5
20260506182103 68 128 3.5 5.2 0.00 0.00 0.00 58 1007.5
20260506181804 68 134 0.9 5.2 0.00 0.04 0.00 58 1006.5
20260506181504 68 132 4.3 5.2 0.00 0.04 0.00 57 1006.5
20260506181203 68 118 2.6 5.2 0.00 0.04 0.00 56 1006.5
20260506180904 69 115 2.6 5.2 0.00 0.04 0.00 53 1006.5
20260506180603 69 112 2.6 5.2 0.00 0.04 0.00 52 1006.5
20260506180303 69 118 5.2 5.2 0.00 0.04 0.00 51 1006.5
20260506180004 69 125 2.6 5.2 0.00 0.04 0.00 51 1006.5
20260506175704 69 131 5.2 5.2 0.00 0.04 0.00 51 1006.5
20260506175403 69 136 5.2 5.2 0.00 0.04 0.00 51 1006.5
20260506175103 70 140 2.6 5.2 0.00 0.04 0.00 50 1006.5
20260506174803 70 140 3.5 5.2 0.00 0.04 0.00 49 1006.5
20260506174503 70 132 5.2 5.2 0.00 0.04 0.00 46 1006.5
20260506174204 70 132 3.5 5.2 0.00 0.04 0.00 45 1006.5
20260506173903 71 131 4.3 7.0 0.00 0.04 0.00 45 1006.5
20260506173603 71 140 4.3 7.0 0.00 0.04 0.00 45 1006.5
20260506173304 70 141 0.0 7.0 0.00 0.04 0.00 45 1006.5
20260506173003 70 135 2.6 7.0 0.00 0.04 0.00 45 1006.5
20260506172103 73 104 2.6 5.2 0.00 0.04 0.00 41 1006.5
20260506171803 72 112 0.9 5.2 0.00 0.04 0.00 41 1006.5
20260506171503 72 150 0.0 5.2 0.00 0.09 0.00 42 1006.5
20260506171204 71 140 5.2 5.2 0.00 0.09 0.00 42 1006.5
20260506170904 71 148 2.6 2.6 0.00 0.09 0.00 42 1006.5
20260506170303 72 135 2.6 2.6 0.00 0.09 0.00 41 1006.5
20260506165703 71 135 2.6 2.6 0.00 0.09 0.00 41 1006.5
20260506165403 71 135 2.6 2.6 0.00 0.09 0.00 41 1006.5
20260506165103 71 135 2.6 2.6 0.00 0.09 0.00 41 1006.5
20260506164804 71 135 2.6 2.6 0.00 0.09 0.00 42 1006.5
20260506164504 71 135 2.6 2.6 0.00 0.09 0.00 42 1006.5
20260506164203 70 135 2.6 2.6 0.00 0.09 0.00 42 1006.5
20260506163903 71 135 2.6 2.6 0.00 0.09 0.00 42 1006.5
20260506163603 71 135 2.6 2.6 0.00 0.09 0.00 42 1006.5
20260506163303 70 135 2.6 2.6 0.00 0.09 0.00 43 1006.5
20260506163003 71 135 2.6 2.6 0.00 0.09 0.00 44 1006.5
20260506162702 71 135 2.6 2.6 0.00 0.09 0.00 42 1006.5
20260506162403 71 135 2.6 2.6 0.00 0.09 0.00 43 1006.5
20260506162103 71 135 2.6 2.6 0.00 0.09 0.00 44 1006.5
20260506161803 71 135 2.6 2.6 0.00 0.09 0.00 43 1006.5
20260506161503 72 135 2.6 2.6 0.00 0.09 0.00 42 1006.5
20260506161203 72 135 2.6 2.6 0.00 0.09 0.00 41 1006.5
20260506160604 73 121 2.6 5.2 0.00 0.09 0.00 41 1006.5
20260506160303 73 104 2.6 5.2 0.00 0.09 0.00 39 1006.5
20260506160003 73 93 1.7 5.2 0.00 0.09 0.00 36 1006.5
20260506154503 74 90 5.2 5.2 0.00 0.09 0.00 33 1006.5
20260506154203 73 90 5.2 5.2 0.00 0.09 0.00 33 1006.5
20260506153903 74 99 5.2 5.2 0.00 0.09 0.00 32 1006.5
20260506153603 74 140 5.2 7.8 0.00 0.09 0.00 33 1006.5
20260506152403 73 157 5.2 5.2 0.00 0.09 0.00 32 1006.5
20260506152103 73 167 4.3 7.8 0.00 0.09 0.00 32 1006.5
20260506151803 72 157 5.2 8.7 0.00 0.09 0.00 33 1006.5
20260506151503 72 158 4.3 8.7 0.00 0.09 0.00 33 1006.5
20260506151204 72 153 1.7 8.7 0.00 0.09 0.00 32 1006.5
20260506150903 73 144 8.7 8.7 0.00 0.09 0.00 31 1006.5
20260506150604 74 164 2.6 7.0 0.00 0.09 0.00 32 1006.5
20260506150305 73 189 1.7 7.0 0.00 0.09 0.00 33 1006.5
20260506150003 73 191 7.0 7.0 0.00 0.09 0.00 32 1006.5
20260506145703 73 174 3.5 6.1 0.00 0.09 0.00 33 1006.5
20260506145403 73 152 4.3 6.1 0.00 0.09 0.00 33 1007.5
20260506145103 73 154 2.6 6.1 0.00 0.09 0.00 33 1007.5
20260506144803 73 182 2.6 6.1 0.00 0.09 0.00 32 1007.5
20260506144504 74 188 5.2 6.1 0.00 0.09 0.00 32 1007.5
20260506144203 73 189 3.5 6.1 0.00 0.09 0.00 33 1007.5
20260506143903 73 183 3.5 5.2 0.00 0.09 0.00 33 1007.5
20260506143303 72 188 2.6 5.2 0.00 0.09 0.00 33 1007.5
20260506143003 72 193 5.2 5.2 0.00 0.09 0.00 33 1007.5
20260506142702 72 202 1.7 3.5 0.00 0.09 0.00 34 1007.5
20260506142403 72 184 3.5 7.8 0.00 0.09 0.00 34 1007.5
20260506142103 72 168 2.6 7.8 0.00 0.09 0.00 33 1007.5
20260506141803 72 161 0.9 9.6 0.00 0.09 0.00 33 1007.5
20260506141503 72 161 3.5 9.6 0.00 0.09 0.00 33 1007.5
20260506141203 73 182 6.1 9.6 0.00 0.09 0.00 32 1007.5
20260506140603 74 204 2.6 5.2 0.00 0.09 0.00 32 1007.5
20260506140303 72 202 5.2 5.2 0.00 0.09 0.00 31 1007.5
20260506140004 72 182 1.7 5.2 0.00 0.09 0.00 32 1007.5
20260506135703 72 172 3.5 9.6 0.00 0.09 0.00 32 1007.5
20260506135403 72 167 2.6 9.6 0.00 0.09 0.00 32 1007.5
20260506135103 71 171 1.7 9.6 0.00 0.09 0.00 32 1007.5
20260506134503 72 178 2.6 4.3 0.00 0.09 0.00 32 1007.5
20260506134203 72 192 1.7 3.5 0.00 0.09 0.00 32 1007.5
20260506133903 72 195 3.5 3.5 0.00 0.09 0.00 30 1007.5
20260506133603 73 202 3.5 5.2 0.00 0.09 0.00 31 1007.5
20260506133303 72 199 2.6 5.2 0.00 0.09 0.00 30 1007.5